| time (UTC) | temp F | wind direction | speed MPH | gust MPH | rain 1hr in | rain 24hr in | rain mn in | humidity % | barometer mb |
| 20260505024130 | 63 | 253 | 0.0 | 0.0 | 0.00 | 0.00 | 0.00 | 52 | 1011.9 |
| 20260505022200 | 63 | 250 | 0.0 | 1.0 | 0.00 | 0.00 | 0.00 | 53 | 1011.8 |
| 20260505021200 | 63 | 250 | 0.0 | 1.0 | 0.00 | 0.00 | 0.00 | 53 | 1012.0 |
| 20260505020200 | 63 | 250 | 0.0 | 0.0 | 0.00 | 0.00 | 0.00 | 52 | 1012.0 |
| 20260505015200 | 63 | 250 | 0.0 | 1.0 | 0.00 | 0.00 | 0.00 | 52 | 1011.8 |
| 20260505013159 | 64 | 244 | 0.0 | 0.0 | 0.00 | 0.00 | 0.00 | 51 | 1011.6 |
| 20260505012159 | 65 | 244 | 0.0 | 0.0 | 0.00 | 0.00 | 0.00 | 50 | 1011.6 |
| 20260505011159 | 65 | 244 | 0.0 | 0.0 | 0.00 | 0.00 | 0.00 | 49 | 1011.5 |
| 20260505010159 | 66 | 244 | 0.0 | 0.0 | 0.00 | 0.00 | 0.00 | 47 | 1011.4 |
| 20260505005159 | 66 | 244 | 0.0 | 0.0 | 0.00 | 0.00 | 0.00 | 45 | 1011.4 |
| 20260505002159 | 68 | 64 | 0.0 | 3.0 | 0.00 | 0.00 | 0.00 | 42 | 1011.3 |
| 20260505001159 | 68 | 296 | 0.0 | 0.0 | 0.00 | 0.00 | 0.00 | 41 | 1011.3 |
| 20260505000159 | 69 | 296 | 0.0 | 1.0 | 0.00 | 0.00 | 0.00 | 40 | 1011.2 |
| 20260504235158 | 69 | 261 | 0.0 | 3.0 | 0.00 | 0.00 | 0.00 | 38 | 1011.1 |
| 20260504234128 | 70 | 246 | 0.0 | 3.0 | 0.00 | 0.00 | 0.00 | 37 | 1011.2 |
| 20260504233158 | 70 | 306 | 0.0 | 4.0 | 0.00 | 0.00 | 0.00 | 36 | 1011.3 |
| 20260504232128 | 71 | 240 | 0.0 | 3.0 | 0.00 | 0.00 | 0.00 | 36 | 1011.4 |
| 20260504231128 | 71 | 299 | 1.0 | 2.0 | 0.00 | 0.00 | 0.00 | 35 | 1011.2 |
| 20260504225158 | 72 | 203 | 0.0 | 4.0 | 0.00 | 0.00 | 0.00 | 33 | 1011.0 |
| 20260504224128 | 73 | 13 | 0.0 | 3.0 | 0.00 | 0.00 | 0.00 | 33 | 1011.0 |
| 20260504223157 | 73 | 311 | 1.0 | 4.0 | 0.00 | 0.00 | 0.00 | 31 | 1010.9 |
| 20260504220157 | 77 | 309 | 2.0 | 7.0 | 0.00 | 0.00 | 0.00 | 27 | 1011.0 |
| 20260504215157 | 77 | 196 | 1.0 | 3.0 | 0.00 | 0.00 | 0.00 | 25 | 1010.9 |
| 20260504214157 | 77 | 240 | 1.0 | 5.0 | 0.00 | 0.00 | 0.00 | 25 | 1010.9 |
| 20260504213157 | 77 | 243 | 1.0 | 7.0 | 0.00 | 0.00 | 0.00 | 25 | 1010.9 |
| 20260504212127 | 78 | 304 | 0.0 | 8.0 | 0.00 | 0.00 | 0.00 | 24 | 1010.9 |
| 20260504210156 | 78 | 232 | 2.0 | 6.0 | 0.00 | 0.00 | 0.00 | 24 | 1010.9 |
| 20260504205157 | 78 | 250 | 2.0 | 7.0 | 0.00 | 0.00 | 0.00 | 25 | 1011.1 |
| 20260504204126 | 78 | 276 | 3.0 | 8.0 | 0.00 | 0.00 | 0.00 | 25 | 1011.2 |
| 20260504203156 | 78 | 265 | 1.0 | 8.0 | 0.00 | 0.00 | 0.00 | 25 | 1011.3 |
| 20260504202156 | 78 | 280 | 3.0 | 9.0 | 0.00 | 0.00 | 0.00 | 24 | 1011.4 |
| 20260504201156 | 78 | 243 | 2.0 | 7.0 | 0.00 | 0.00 | 0.00 | 24 | 1011.4 |
| 20260504200156 | 77 | 270 | 6.0 | 6.0 | 0.00 | 0.00 | 0.00 | 24 | 1011.5 |
| 20260504195156 | 77 | 268 | 0.0 | 7.0 | 0.00 | 0.00 | 0.00 | 25 | 1011.9 |
| 20260504194156 | 77 | 257 | 5.0 | 8.0 | 0.00 | 0.00 | 0.00 | 24 | 1011.9 |
| 20260504193156 | 77 | 205 | 3.0 | 7.0 | 0.00 | 0.00 | 0.00 | 24 | 1012.1 |
| 20260504192126 | 77 | 288 | 1.0 | 7.0 | 0.00 | 0.00 | 0.00 | 25 | 1012.2 |
| 20260504191156 | 76 | 256 | 1.0 | 5.0 | 0.00 | 0.00 | 0.00 | 24 | 1012.3 |
| 20260504190156 | 76 | 355 | 1.0 | 8.0 | 0.00 | 0.00 | 0.00 | 24 | 1012.5 |
| 20260504184155 | 76 | 282 | 1.0 | 7.0 | 0.00 | 0.00 | 0.00 | 25 | 1012.7 |
| 20260504183155 | 76 | 251 | 3.0 | 8.0 | 0.00 | 0.00 | 0.00 | 25 | 1012.7 |
| 20260504182155 | 75 | 298 | 1.0 | 7.0 | 0.00 | 0.00 | 0.00 | 24 | 1012.8 |
| 20260504181125 | 75 | 226 | 1.0 | 6.0 | 0.00 | 0.00 | 0.00 | 24 | 1012.9 |
| 20260504175154 | 74 | 261 | 4.0 | 9.0 | 0.00 | 0.00 | 0.00 | 24 | 1013.1 |
| 20260504173154 | 74 | 82 | 0.0 | 8.0 | 0.00 | 0.00 | 0.00 | 25 | 1013.5 |
| 20260504172155 | 73 | 266 | 1.0 | 4.0 | 0.00 | 0.00 | 0.00 | 28 | 1013.5 |
| 20260504171154 | 73 | 197 | 3.0 | 6.0 | 0.00 | 0.00 | 0.00 | 26 | 1013.6 |
| 20260504170154 | 73 | 265 | 2.0 | 8.0 | 0.00 | 0.00 | 0.00 | 27 | 1013.7 |
| 20260504160153 | 70 | 269 | 0.0 | 7.0 | 0.00 | 0.00 | 0.00 | 31 | 1014.5 |
| 20260504150153 | 67 | 274 | 3.0 | 4.0 | 0.00 | 0.00 | 0.00 | 32 | 1015.0 |
| 20260504141152 | 64 | 264 | 0.0 | 4.0 | 0.00 | 0.00 | 0.00 | 39 | 1015.4 |
| 20260504140152 | 64 | 212 | 1.0 | 4.0 | 0.00 | 0.00 | 0.00 | 39 | 1015.4 |
| 20260504130152 | 58 | 254 | 0.0 | 4.0 | 0.00 | 0.00 | 0.00 | 47 | 1015.6 |
| 20260504120151 | 52 | 241 | 1.0 | 8.0 | 0.00 | 0.00 | 0.00 | 58 | 1016.0 |
| 20260504110150 | 48 | 150 | 0.0 | 0.0 | 0.00 | 0.00 | 0.00 | 70 | 1016.0 |
| 20260504100150 | 46 | 150 | 0.0 | 0.0 | 0.00 | 0.00 | 0.00 | 71 | 1016.1 |
| 20260504081148 | 45 | 168 | 0.0 | 0.0 | 0.00 | 0.00 | 0.00 | 69 | 1016.4 |
| 20260504080148 | 45 | 168 | 0.0 | 0.0 | 0.00 | 0.00 | 0.00 | 69 | 1016.5 |
| 20260504060147 | 44 | 168 | 0.0 | 0.0 | 0.00 | 0.00 | 0.00 | 70 | 1016.7 |
| 20260504050146 | 45 | 168 | 0.0 | 0.0 | 0.00 | 0.00 | 0.00 | 69 | 1016.7 |
| 20260504045146 | 45 | 168 | 0.0 | 0.0 | 0.00 | 0.00 | 0.00 | 68 | 1016.6 |
| 20260504044146 | 45 | 168 | 0.0 | 0.0 | 0.00 | 0.00 | 0.00 | 67 | 1016.6 |
| 20260504043146 | 45 | 168 | 0.0 | 0.0 | 0.00 | 0.00 | 0.00 | 66 | 1016.6 |
| 20260504042146 | 45 | 168 | 0.0 | 0.0 | 0.00 | 0.00 | 0.00 | 64 | 1016.6 |
| 20260504041146 | 46 | 168 | 0.0 | 0.0 | 0.00 | 0.00 | 0.00 | 65 | 1016.5 |
| 20260504040146 | 46 | 168 | 0.0 | 0.0 | 0.00 | 0.00 | 0.00 | 65 | 1016.1 |
| 20260504035145 | 46 | 168 | 0.0 | 0.0 | 0.00 | 0.00 | 0.00 | 65 | 1016.1 |
| 20260504034145 | 46 | 168 | 0.0 | 0.0 | 0.00 | 0.00 | 0.00 | 65 | 1016.2 |
| 20260504032145 | 47 | 168 | 0.0 | 0.0 | 0.00 | 0.00 | 0.00 | 63 | 1016.1 |
| 20260504031145 | 47 | 168 | 0.0 | 0.0 | 0.00 | 0.00 | 0.00 | 63 | 1015.9 |
| 20260504025145 | 47 | 168 | 0.0 | 0.0 | 0.00 | 0.00 | 0.00 | 61 | 1016.1 |